Lapse_Rate
6.9 6.5 6.4 6.3 5.8 5.6 5.5 5.1 4.9 4.9 4.9 5.1 4.8 4.3 4.4 4.5 4.1 4.4 4.4 4.4 4.2 4.1
6.8 6.5 6.3 5.9 5.7 5.7 5.7 5.4 5.0 4.9 4.9 5.0 5.0 5.0 4.4 4.1 4.1 3.9 4.2 4.5 4.5 4.6
6.9 6.6 6.4 6.3 5.7 5.7 5.5 5.7 5.5 5.4 5.3 5.0 5.0 5.0 5.1 4.8 5.0 4.5 4.5 4.6 4.5 4.8
6.5 6.6 6.6 6.6 6.1 5.4 5.5 5.5 5.5 5.5 5.5 5.0 5.1 5.1 5.3 5.2 5.2 5.3 5.3 5.1 5.0 5.1
6.7 6.6 6.5 6.5 6.5 6.1 5.5 5.4 5.1 5.3 5.5 5.6 5.5 5.3 5.4 5.3 5.2 5.3 5.3 5.3 5.1 5.3
6.8 6.4 6.4 6.5 6.6 6.3 6.0 5.8 5.6 5.4 5.5 5.4 5.5 5.4 5.4 5.2 5.3 5.5 5.3 5.3 5.2 5.3
7.0 6.7 6.4 6.3 6.4 6.5 6.1 5.9 5.9 5.9 5.7 5.6 5.3 5.3 5.3 5.2 5.4 5.2 5.0 5.0 5.0 5.0
7.2 6.9 6.7 6.6 6.4 6.6 6.6 6.4 6.3 6.4 6.5 6.2 5.9 5.5 5.6 5.4 5.2 5.2 4.8 4.8 4.9 5.0
7.5 7.2 7.0 6.8 6.6 6.6 6.6 6.7 6.8 6.5 6.3 6.2 6.1 5.6 5.4 5.7 5.3 5.2 5.0 5.1 5.1 5.2
7.5 7.4 7.3 7.1 6.8 6.6 6.6 6.6 6.7 6.7 6.7 6.5 6.3 6.2 6.1 6.0 6.1 6.1 6.0 5.9 5.5 5.5
6.5 6.5 6.5 6.6 6.8 6.9 6.9 6.8 6.7 6.7 6.6 6.5 6.4 6.1 6.1 6.1 6.0 5.9 5.8 5.6 5.6 5.6
6.6 6.9 7.1 7.0 6.8 6.6 6.8 7.1 7.2 7.1 6.8 6.8 6.7 6.4 6.2 5.9 6.0 5.9 5.5 5.6 5.6 5.6
6.4 6.6 7.1 7.2 7.3 6.8 6.5 6.4 6.9 7.1 6.9 6.7 6.6 6.5 6.3 6.1 6.2 5.9 5.7 5.6 5.4 5.2
7.0 7.1 7.2 6.8 6.6 7.0 7.1 6.5 6.3 6.6 6.7 6.5 6.3 6.3 6.2 6.1 6.0 5.8 5.4 5.3 5.2 5.3
Wind_Speed
6 4 5 8 7 5 8 10 14 12 11 9 10 8 7 6 5 6 5 7 4 3
6 6 6 7 8 6 6 8 14 16 16 14 11 10 9 6 6 6 5 5 4 2
6 6 6 7 7 8 7 9 11 12 15 16 15 15 13 9 9 7 3 4 5 3
2 4 6 7 7 8 8 8 12 14 16 16 16 16 14 13 13 13 9 5 6 6
5 4 4 6 8 9 9 9 8 7 12 15 14 14 16 15 13 14 13 13 9 10
6 6 5 5 7 7 9 10 10 10 8 11 15 14 13 15 13 13 13 13 14 14
8 8 9 7 6 8 9 9 9 10 10 9 8 11 11 12 11 11 10 7 6 3
10 9 9 9 9 8 8 9 10 10 10 10 9 7 10 9 9 8 7 6 6 6
9 11 11 10 10 10 10 8 8 8 9 9 7 11 15 12 10 8 9 8 9 10
9 11 11 11 11 11 11 10 10 9 7 6 6 10 13 12 7 8 8 11 10 9
10 9 10 11 12 11 10 11 10 9 8 6 4 7 8 10 7 7 8 9 11 12
8 10 11 12 12 11 9 7 5 5 7 7 4 7 15 13 9 11 11 10 11 12
10 11 12 11 12 4 6 6 7 8 8 10 8 11 12 13 10 13 11 12 13 19
8 9 12 8 4 7 9 12 11 12 9 10 9 10 16 18 12 13 12 11 10 10
Wind_Direction
172 171 159 165 154 155 161 156 150 148 153 132 123 110 117 128 115 123 123 130 133 153
159 154 154 149 159 158 150 144 153 160 167 172 167 146 147 136 131 144 135 127 147 144
158 149 138 134 151 148 145 151 156 159 166 170 177 176 176 172 172 149 151 143 159 199
154 148 145 141 136 145 140 150 174 173 172 173 176 183 186 182 180 185 188 157 203 204
160 150 156 155 147 149 157 156 158 161 171 169 179 178 182 178 181 190 194 206 205 221
156 159 173 164 158 162 159 163 161 161 168 185 176 178 181 186 182 192 197 199 208 219
169 172 173 171 165 173 173 174 173 176 174 165 168 174 181 181 188 196 202 193 194 193
173 175 169 167 175 171 176 185 188 188 194 187 180 180 180 184 186 173 131 104 96 81
177 178 181 171 172 176 180 178 175 193 194 188 188 181 180 185 188 173 152 135 115 105
181 185 184 176 178 181 184 179 186 182 181 197 199 189 186 184 179 158 144 140 133 115
190 193 184 180 181 183 183 183 183 184 181 167 164 175 166 119 104 103 114 127 127 124
194 196 188 193 189 176 169 168 156 153 149 151 126 163 142 120 108 101 98 101 107 111
315 211 201 194 192 135 140 115 105 86 78 88 96 100 118 119 118 110 107 100 98 103
332 287 206 187 136 130 118 112 102 95 89 93 98 98 109 120 124 126 117 111 107 102